User: anonymous   Login
Location: Arcones
(41.1182°N, 3.7238°W)
Time: 15:53:03
(UTC+00:00)
Language:

NOSS 2-3 (C) - Orbit

View from above orbital plane
View from above orbital plane
View from above satellite
View from above satellite

Ground track
Ground track

The orbit is defined by the following mean orbital elements,

1 23908U          26042.28558007 +.00000000 +00000-0 +17190-3 0 00005
2 23908  63.3205 160.9493 0845119  47.5161 319.4204 13.45813845    02
Epoch (UTC): 11 February 2026 06:51:14
Eccentricity: 0.0845119
inclination: 63.3205°
perigee height: 457 km
apogee height: 1719 km
right ascension of ascending node: 160.9493°
argument of perigee: 47.5161°
revolutions per day: 13.45813845
mean anomaly at epoch: 319.4204°

The dashed part of the orbit path shows where the satellite is in the earth's shadow,  

DLR